This demonstration page uses our WeatherBlox Daily Observations layout. Learn more.

38.88101, -77.10428

Hourly Observations for October 14, 2016

Temp ( °F °C ) Dew Point ( °F °C ) Humidity (%) Winds ( mph kmh ) Pressure ( in mb ) Visibility ( mi km ) Precip ( " mm )
12:52 am 00:52 Clear 56 13.3 42 5.6 60 60 NNW 15 24 30.27 1025 10 16.09344 0 0
1:52 am 01:52 Clear 55 12.8 42 5.6 62 62 NNW 15 24 30.3 1026 10 16.09344 0 0
2:52 am 02:52 Clear 53 11.7 43 6.1 69 69 NNW 9 15 30.3 1026 10 16.09344 0 0
3:52 am 03:52 Clear 51 10.6 42 5.6 71 71 NW 7 11 30.3 1026 10 16.09344 0 0
4:52 am 04:52 Mostly Clear 50 10 42 5.6 74 74 NNW 6 9 30.33 1027 10 16.09344 0 0
5:52 am 05:52 Clear 49 9.4 43 6.1 80 80 NNW 8 13 30.33 1027 10 16.09344 0 0
6:52 am 06:52 Mostly Clear 50 10 42 5.6 74 74 NNW 7 11 30.36 1028 10 16.09344 0 0
7:52 am 07:52 Mostly Sunny 50 10 42 5.6 74 74 NNW 8 13 30.39 1029 10 16.09344 0 0
8:52 am 08:52 Mostly Sunny 53 11.7 44 6.7 72 72 N 10 17 30.39 1029 10 16.09344 0 0
9:52 am 09:52 Mostly Sunny 57 13.9 42 5.6 58 58 NE 9 15 30.42 1030 10 16.09344 0 0
10:52 am 10:52 Mostly Sunny 59 15 41 5 51 51 NE 6 9 30.42 1030 10 16.09344 0 0
11:52 am 11:52 Partly Cloudy 61 16.1 39 3.9 44 44 NE 7 11 30.42 1030 10 16.09344 0 0
12:52 pm 12:52 Partly Cloudy 63 17.2 39 3.9 41 41 NNE 6 9 30.39 1029 10 16.09344 0 0
1:52 pm 13:52 Partly Cloudy 65 18.3 39 3.9 39 39 Calm 30.36 1028 10 16.09344 0 0
2:52 pm 14:52 Mostly Cloudy 65 18.3 38 3.3 37 37 Calm 30.36 1028 10 16.09344 0 0
3:52 pm 15:52 Cloudy 65 18.3 38 3.3 37 37 Calm 30.33 1027 10 16.09344 0 0
4:52 pm 16:52 Cloudy 65 18.3 40 4.4 40 40 ENE 5 7 30.33 1027 10 16.09344 0 0
5:52 pm 17:52 Cloudy 64 17.8 39 3.9 40 40 E 3 6 30.33 1027 10 16.09344 0 0
6:52 pm 18:52 Cloudy 61 16.1 43 6.1 52 52 SSE 6 9 30.33 1027 10 16.09344 0 0
7:52 pm 19:52 Cloudy 60 15.6 41 5 50 50 SSW 3 6 30.36 1028 10 16.09344 0 0
8:52 pm 20:52 Cloudy 57 13.9 44 6.7 62 62 SSE 3 6 30.36 1028 10 16.09344 0 0
9:52 pm 21:52 Cloudy 58 14.4 45 7.2 62 62 Calm 30.39 1029 10 16.09344 0 0
10:52 pm 22:52 Cloudy 56 13.3 47 8.3 72 72 Calm 30.39 1029 10 16.09344 0 0
11:52 pm 23:52 Cloudy 56 13.3 47 8.3 72 72 Calm 30.39 1029 10 16.09344 0 0

Powered by AerisWeather